Location: Powder Track
(41.8531°N, 72.3584°W)
Time: 18:30:45
(UTC+00:00)

Transit 4A - Pass Details

Date: 13 August 2021
Orbit: 871 x 974 km, 66.8° (Epoch: 19 September)

Event Time Altitude Azimuth Distance (km) Brightness Sun altitude
Rises 01:57:18 0° 210° (SSW) 3,485 10.8 -20.3°
Reaches altitude 10° 01:59:47 10° 211° (SSW) 2,537 10.0 -20.7°
Maximum altitude 02:05:40 85° 299° (WNW) 883 7.7 -21.4°
Drops below altitude 10° 02:11:30 10° 29° (NNE) 2,525 10.4 -22.2°
Sets 02:13:59 0° 30° (NNE) 3,467 11.1 -22.5°
